Wind_Speed
16 16 16 16 16 16 15 15 15 14 13 12 12 11 11 10 10 10 9 8 8 7 7 6 6 6 6 6 6 6 6 6 6 6 6 6 5 5 5 5 6 6 7
18 17 17 17 17 17 17 17 16 15 14 13 13 12 12 11 11 11 10 9 9 8 8 7 7 7 7 7 7 7 7 7 7 7 7 7 7 7 7 7 7 7 7
20 19 19 19 18 18 18 18 17 17 16 15 14 13 13 12 11 11 11 11 10 10 9 8 8 8 7 8 8 8 8 8 8 8 8 8 8 8 8 8 8 8 8
22 21 20 20 20 19 19 19 19 18 17 16 15 14 14 13 13 12 11 11 11 11 10 10 9 9 9 8 9 9 8 8 9 8 9 9 9 9 10 10 10 10 10
23 23 22 21 21 20 20 20 20 19 18 17 17 16 16 15 14 13 13 12 12 11 11 11 11 10 10 10 10 10 10 9 9 9 9 10 10 10 11 11 11 11 10
25 24 24 23 22 21 21 21 21 20 19 19 18 18 17 16 15 15 14 14 13 12 12 12 12 12 12 11 11 11 10 10 10 10 10 10 11 11 12 12 11 11 11
26 26 25 24 24 23 22 22 23 23 22 20 20 19 18 17 17 17 16 16 15 14 14 14 13 13 13 13 13 12 12 12 12 12 12 12 12 12 12 12 12 12 12
26 26 26 26 25 24 24 23 24 24 23 22 21 20 19 19 18 18 18 18 17 16 16 15 15 14 14 14 14 14 14 14 14 13 13 13 13 13 12 12 12 13 13
26 27 27 26 26 25 24 24 24 24 24 23 22 20 20 20 19 19 19 18 18 18 17 16 16 16 15 15 15 15 15 15 15 14 14 14 14 14 14 14 14 14 15
27 27 28 27 27 26 25 25 24 24 23 23 22 21 20 19 19 18 18 19 19 19 19 18 18 17 17 16 16 16 16 16 15 15 16 16 15 15 15 15 15 16 16
27 28 28 28 27 27 26 26 26 25 24 23 22 21 20 20 19 19 19 19 20 20 20 19 19 19 19 18 17 17 17 16 16 16 16 17 17 16 16 16 17 17 17
28 29 29 29 28 28 27 28 27 26 25 24 24 23 22 21 20 20 20 20 20 21 21 21 21 21 20 20 19 19 19 18 18 18 17 17 17 17 17 17 18 18 19
27 29 29 29 29 28 28 29 29 27 25 25 24 24 23 22 21 21 21 20 21 21 21 22 22 22 21 21 21 21 20 20 20 20 19 19 18 18 18 19 19 19 20
27 28 28 29 29 29 29 29 30 29 26 24 23 23 24 23 22 22 22 21 21 21 22 22 23 23 23 23 22 22 21 21 21 21 21 21 20 20 21 21 20 20 20
27 27 28 29 29 29 29 28 29 30 28 26 24 23 24 23 23 22 22 22 22 22 22 23 24 24 24 24 24 24 23 22 22 22 22 23 22 22 22 22 22 22 22
26 28 28 27 29 30 30 29 28 29 29 29 27 24 23 23 23 23 23 22 23 23 24 24 25 26 26 26 25 25 24 24 23 24 24 24 24 24 24 24 24 24 24
26 28 30 30 29 30 31 29 28 28 29 29 27 26 24 24 25 24 24 24 24 24 24 25 26 26 27 27 27 25 25 25 25 26 26 26 26 26 25 25 25 26 26
26 28 29 30 30 29 30 30 29 29 29 29 28 28 27 25 27 27 27 26 25 25 25 26 26 27 28 28 28 27 26 26 26 27 27 28 27 27 27 27 27 28 28
27 28 29 29 29 30 30 30 30 30 29 29 28 29 29 27 27 28 28 27 27 27 27 27 28 28 29 29 29 29 27 28 28 28 29 29 29 29 29 29 29 30 30
25 27 28 29 30 30 30 30 30 31 31 30 29 29 30 30 29 29 29 29 28 28 28 28 29 29 29 29 30 31 30 29 30 30 30 30 31 30 30 31 31 32 32
23 25 26 27 29 29 30 30 30 30 31 32 31 31 31 31 31 31 31 31 30 30 29 30 30 30 31 31 32 32 32 31 31 31 32 32 33 32 32 33 33 34 34
23 25 27 28 28 29 29 29 29 30 32 32 32 32 31 31 32 32 32 32 32 31 31 31 31 32 33 33 34 34 35 35 33 33 33 34 34 35 34 35 35 35 36
23 25 27 28 28 29 28 28 30 30 30 31 31 31 31 32 32 32 32 32 32 33 33 33 33 34 35 35 36 37 37 37 36 35 36 36 36 36 36 37 37 37 37
24 26 27 28 30 29 28 28 29 30 31 32 32 33 33 32 33 33 33 34 34 34 35 35 35 35 36 36 37 38 38 39 38 37 37 37 38 37 38 38 38 38 39
25 26 27 28 29 29 29 29 30 31 32 32 33 34 34 34 35 35 35 35 36 36 36 36 37 37 37 37 38 38 39 39 39 39 38 37 38 39 39 40 40 40 41
25 26 27 29 28 28 29 30 31 31 32 33 34 35 35 35 36 37 37 37 37 37 37 37 38 38 37 37 38 38 39 40 41 41 41 40 40 40 41 42 43 43 43
Wind_Direction
245 243 241 238 235 234 232 230 229 228 228 227 228 228 228 227 226 222 219 215 215 218 218 218 219 223 228 231 237 241 244 246 249 253 257 264 271 280 288 293 298 302 305
245 242 239 237 235 234 234 232 232 231 230 230 230 231 230 229 227 224 222 220 220 221 224 226 227 231 238 241 243 246 251 253 253 256 259 263 269 276 281 285 290 295 299
244 242 239 238 237 235 234 233 233 234 232 233 233 233 231 230 229 228 227 226 226 227 228 230 233 236 239 244 248 250 255 255 254 258 261 264 269 274 278 281 285 289 292
242 240 239 238 237 234 234 234 233 235 235 234 235 235 233 232 232 232 231 229 229 231 233 235 238 240 242 243 248 253 256 260 258 262 265 267 268 271 275 279 282 284 285
240 238 237 237 236 234 233 236 235 235 236 235 236 236 235 233 233 234 234 233 232 233 234 237 240 241 243 245 249 253 254 258 261 265 268 268 268 270 274 277 279 280 281
238 236 236 235 234 234 234 235 235 235 236 236 237 237 237 235 235 236 236 236 236 236 236 238 241 244 246 248 250 254 257 259 262 264 267 269 270 271 273 275 277 278 280
238 235 235 234 233 234 235 235 235 236 235 236 237 237 238 238 238 239 239 239 238 238 239 241 244 245 248 250 252 254 257 260 261 262 265 269 271 271 273 274 276 277 280
238 235 233 233 234 234 235 235 236 236 235 235 236 237 238 239 240 240 241 239 239 240 241 242 244 245 248 251 253 255 257 260 260 263 266 268 269 271 271 272 274 276 279
237 234 233 232 232 233 234 234 235 234 233 233 235 236 237 239 239 240 240 239 240 241 242 242 244 246 249 251 253 256 257 259 260 261 265 267 268 270 272 272 273 276 278
236 234 234 231 231 232 233 233 233 232 232 231 233 234 235 237 237 238 239 239 241 242 243 243 245 247 250 252 254 255 257 258 260 263 264 267 269 272 273 274 273 275 277
236 235 233 231 231 233 232 231 231 232 230 230 233 234 235 237 239 239 241 242 242 244 244 244 246 247 250 252 254 254 256 258 260 263 265 266 268 271 273 275 275 275 276
236 235 233 231 231 232 231 229 230 230 229 230 232 234 235 238 241 243 244 244 244 245 246 246 246 247 249 251 253 256 257 258 260 262 265 266 268 271 273 275 275 275 275
235 233 232 230 229 229 230 228 228 229 230 229 232 235 237 240 242 244 245 247 247 247 248 247 247 246 248 251 253 257 258 259 260 261 264 266 268 271 273 275 275 274 273
232 231 231 230 229 228 227 227 229 230 231 231 234 237 237 241 243 245 245 246 248 250 251 249 248 246 248 251 253 256 257 259 260 261 263 265 268 270 272 274 275 275 274
230 229 230 230 230 229 228 228 230 230 232 235 238 240 241 242 243 245 247 247 249 251 252 252 249 247 248 250 252 255 258 260 261 262 264 266 267 269 270 272 273 274 275
230 228 228 229 229 229 228 230 231 231 234 236 239 240 241 241 244 246 247 247 250 251 253 252 250 251 250 250 251 253 257 260 263 265 265 266 266 268 270 271 272 273 275
231 230 230 229 228 229 228 230 233 234 237 239 239 240 243 244 243 245 247 249 251 252 254 253 252 252 252 251 252 253 256 261 264 266 266 267 267 268 269 270 270 272 275
232 232 233 232 231 230 230 231 235 238 238 240 241 242 243 245 245 246 248 251 253 254 255 255 255 254 253 252 252 253 255 260 263 265 267 267 268 268 269 270 271 272 274
230 231 233 233 233 232 232 232 236 238 238 240 242 243 244 246 249 250 251 254 255 255 256 257 257 256 254 253 254 254 257 260 262 265 266 267 268 268 269 269 271 272 273
231 232 233 234 234 233 234 235 237 238 237 239 242 244 245 247 250 252 252 254 255 256 257 258 258 256 255 254 254 256 257 259 261 263 265 267 268 269 270 270 272 273 273
237 235 235 236 236 235 238 237 237 238 239 240 244 246 246 248 250 252 253 255 256 257 257 258 258 257 256 255 256 257 258 259 263 264 265 268 269 269 270 272 273 274 274
238 236 238 236 239 237 238 237 238 241 241 242 244 246 247 249 252 253 255 256 256 257 258 259 259 258 257 257 259 259 260 261 264 265 266 268 270 271 272 273 273 274 275
242 241 241 242 243 240 240 241 240 241 241 241 244 248 250 251 253 254 255 257 257 258 259 260 260 260 259 260 261 262 262 262 265 267 268 269 271 272 272 274 274 275 276
242 244 246 247 245 243 243 243 241 241 242 243 246 249 250 252 253 253 255 257 258 260 261 261 262 262 262 262 263 264 265 265 267 268 268 269 270 272 272 274 275 276 277
243 245 247 248 247 248 248 247 245 245 245 245 247 249 251 252 253 254 256 258 259 261 262 263 263 263 264 264 265 265 266 267 269 270 270 270 270 271 273 273 274 276 277
244 246 247 246 247 249 250 250 248 248 248 248 249 251 252 255 256 257 257 259 260 262 263 264 265 264 264 266 265 266 267 268 269 269 271 272 273 272 273 274 274 275 276
Height
5849 5850 5850 5851 5852 5853 5854 5855 5856 5858 5859 5860 5860 5861 5862 5863 5863 5864 5864 5865 5865 5866 5866 5867 5867 5868 5868 5869 5869 5869 5870 5870 5870 5871 5871 5871 5871 5871 5871 5871 5870 5870 5870
5845 5846 5847 5848 5849 5850 5851 5853 5854 5855 5856 5857 5858 5859 5860 5860 5861 5862 5863 5863 5864 5864 5865 5865 5866 5866 5867 5867 5868 5868 5868 5868 5869 5869 5869 5869 5870 5870 5870 5869 5869 5869 5868
5841 5842 5843 5844 5845 5847 5848 5849 5851 5852 5853 5855 5856 5857 5857 5858 5859 5860 5860 5861 5862 5862 5863 5864 5864 5865 5865 5866 5866 5866 5867 5867 5867 5867 5867 5868 5868 5868 5868 5868 5868 5867 5867
5836 5837 5838 5840 5841 5843 5844 5846 5847 5849 5850 5852 5853 5854 5855 5856 5857 5857 5858 5859 5860 5860 5861 5862 5862 5863 5863 5864 5864 5865 5865 5865 5865 5865 5866 5866 5866 5866 5866 5866 5866 5865 5865
5831 5832 5834 5835 5837 5839 5840 5842 5844 5845 5847 5848 5850 5851 5852 5853 5854 5855 5856 5856 5857 5858 5859 5860 5860 5861 5861 5862 5862 5863 5863 5863 5863 5863 5864 5864 5864 5864 5864 5864 5864 5863 5863
5825 5826 5828 5830 5832 5834 5836 5838 5840 5841 5843 5845 5846 5848 5849 5850 5851 5852 5853 5854 5855 5855 5856 5857 5858 5858 5859 5860 5860 5860 5861 5861 5861 5861 5861 5861 5862 5862 5862 5861 5861 5861 5861
5819 5821 5823 5825 5828 5830 5832 5834 5835 5837 5839 5841 5843 5844 5845 5846 5848 5849 5850 5851 5852 5852 5853 5854 5855 5856 5856 5857 5857 5858 5858 5858 5859 5859 5859 5859 5859 5859 5859 5859 5859 5859 5858
5813 5815 5818 5820 5823 5825 5827 5829 5831 5833 5835 5837 5838 5840 5841 5843 5844 5845 5846 5847 5848 5849 5850 5851 5852 5852 5853 5854 5854 5855 5855 5855 5856 5856 5856 5856 5856 5856 5856 5856 5856 5856 5856
5807 5809 5812 5815 5817 5820 5822 5824 5826 5828 5830 5832 5834 5836 5837 5839 5840 5841 5842 5844 5845 5846 5847 5848 5849 5849 5850 5850 5851 5851 5852 5852 5852 5853 5853 5853 5853 5854 5854 5853 5853 5853 5853
5801 5803 5806 5809 5811 5814 5817 5819 5821 5824 5826 5828 5830 5832 5833 5835 5836 5837 5838 5839 5841 5842 5843 5844 5845 5846 5846 5847 5847 5848 5848 5849 5849 5849 5850 5850 5850 5850 5850 5850 5850 5850 5850
5795 5797 5800 5803 5806 5808 5811 5814 5816 5818 5821 5823 5825 5827 5829 5830 5831 5833 5834 5835 5837 5838 5839 5840 5841 5842 5842 5843 5843 5844 5845 5845 5845 5846 5846 5846 5847 5847 5847 5847 5847 5847 5846
5788 5791 5794 5796 5799 5802 5805 5808 5811 5813 5816 5818 5820 5822 5824 5826 5827 5828 5829 5831 5832 5833 5834 5835 5836 5837 5838 5839 5839 5840 5841 5841 5842 5842 5842 5843 5843 5843 5843 5843 5843 5843 5843
5782 5785 5788 5791 5794 5796 5799 5802 5805 5808 5811 5813 5815 5817 5819 5821 5822 5824 5825 5826 5827 5828 5829 5830 5831 5833 5833 5834 5835 5836 5836 5837 5837 5838 5838 5839 5839 5839 5839 5839 5839 5839 5838
5776 5779 5781 5784 5787 5790 5793 5796 5800 5803 5806 5808 5810 5812 5814 5816 5818 5819 5820 5821 5822 5823 5824 5825 5826 5828 5829 5830 5831 5831 5832 5832 5833 5833 5834 5834 5835 5835 5835 5835 5834 5834 5834
5770 5773 5776 5779 5782 5784 5788 5792 5794 5797 5801 5803 5805 5807 5809 5811 5813 5814 5815 5816 5817 5818 5819 5820 5821 5822 5823 5824 5825 5826 5827 5828 5828 5829 5829 5829 5830 5830 5830 5830 5830 5829 5829
5765 5768 5770 5773 5776 5779 5783 5787 5789 5792 5795 5798 5800 5802 5804 5806 5807 5809 5810 5811 5812 5813 5814 5815 5815 5817 5818 5819 5820 5821 5822 5823 5823 5823 5824 5824 5824 5825 5825 5825 5824 5824 5824
5760 5762 5765 5767 5771 5774 5778 5781 5784 5787 5789 5792 5794 5796 5798 5800 5802 5803 5805 5806 5806 5807 5808 5809 5810 5811 5812 5813 5814 5815 5816 5817 5817 5818 5818 5819 5819 5819 5819 5819 5819 5819 5818
5755 5757 5760 5762 5765 5768 5772 5775 5778 5780 5783 5786 5788 5791 5793 5795 5796 5798 5799 5800 5801 5802 5802 5803 5804 5805 5806 5807 5808 5809 5810 5811 5811 5812 5812 5812 5813 5813 5813 5813 5813 5813 5812
5749 5752 5755 5757 5760 5763 5766 5769 5772 5775 5777 5780 5783 5785 5787 5789 5790 5792 5793 5794 5795 5796 5796 5797 5798 5799 5800 5801 5802 5803 5804 5805 5805 5805 5806 5806 5806 5806 5806 5807 5806 5806 5806
5744 5746 5749 5752 5755 5758 5761 5763 5766 5769 5771 5774 5776 5779 5781 5783 5784 5786 5787 5788 5789 5790 5791 5791 5792 5792 5793 5795 5795 5796 5797 5798 5798 5799 5799 5799 5799 5799 5800 5800 5800 5799 5799
5739 5741 5745 5747 5750 5752 5755 5758 5760 5762 5765 5768 5770 5772 5774 5776 5778 5779 5781 5782 5783 5784 5784 5785 5785 5786 5787 5788 5789 5789 5790 5790 5791 5791 5792 5792 5792 5792 5792 5792 5792 5792 5791
5734 5737 5740 5742 5744 5747 5749 5752 5755 5757 5759 5761 5763 5766 5768 5770 5771 5772 5774 5775 5776 5777 5777 5778 5778 5779 5780 5781 5782 5782 5783 5784 5784 5784 5784 5784 5784 5784 5784 5784 5784 5783 5783
5730 5732 5735 5737 5738 5741 5743 5746 5748 5750 5752 5754 5757 5759 5760 5762 5764 5766 5767 5768 5769 5769 5770 5771 5771 5772 5773 5773 5774 5775 5775 5776 5777 5777 5776 5776 5776 5776 5776 5776 5775 5775 5774
5725 5727 5729 5731 5733 5735 5737 5739 5741 5743 5745 5748 5750 5751 5753 5755 5756 5758 5759 5760 5761 5762 5762 5763 5763 5764 5764 5765 5766 5766 5767 5768 5768 5769 5769 5768 5768 5767 5767 5767 5766 5765 5765
5720 5722 5723 5725 5727 5729 5731 5732 5734 5736 5738 5740 5742 5744 5746 5747 5748 5750 5751 5752 5753 5754 5754 5755 5755 5756 5756 5756 5757 5758 5758 5758 5758 5759 5759 5760 5759 5758 5758 5757 5756 5755 5755
5714 5716 5718 5720 5721 5723 5724 5726 5727 5729 5731 5733 5734 5736 5738 5739 5740 5741 5743 5744 5744 5745 5746 5746 5747 5747 5748 5748 5748 5749 5749 5749 5749 5749 5749 5749 5749 5749 5748 5747 5746 5745 5744